This is the latest recevied weather packets stored in our database for station/object KA3BQE-13. If no packets are shown the sender has not sent any weather packets the latest 10 day(s).
| Time | Temp. | Humidity | Pressure | Rain* | Wind** | Luminosity | Snow |
|---|---|---|---|---|---|---|---|
| 1777640829 | 6.11° C | 94% | 1018.2 hPa | 0 mm | - | 132 W/m² | - |
| 1777640525 | 6.11° C | 95% | 1018.1 hPa | 0 mm | - | 118 W/m² | - |
| 1777640223 | 6.11° C | 95% | 1018.1 hPa | 0 mm | - | 113 W/m² | - |
| 1777639919 | 6.11° C | 95% | 1018 hPa | 0 mm | - | 61 W/m² | - |
| 1777639616 | 5.56° C | 95% | 1017.8 hPa | 0 mm | - | 75 W/m² | - |
| 1777639313 | 6.11° C | 95% | 1017.8 hPa | 0 mm | - | 67 W/m² | - |
| 1777639009 | 6.11° C | 95% | 1017.6 hPa | 0 mm | - | 77 W/m² | - |
| 1777638705 | 6.11° C | 95% | 1017.6 hPa | 0 mm | - | 74 W/m² | - |
| 1777638402 | 6.11° C | 95% | 1017.8 hPa | 0 mm | - | 70 W/m² | - |
| 1777638098 | 6.11° C | 95% | 1017.4 hPa | 0 mm | - | 71 W/m² | - |
| 1777637795 | 6.11° C | 95% | 1017.6 hPa | 0 mm | - | 49 W/m² | - |
| 1777637491 | 6.11° C | 95% | 1017.6 hPa | 0 mm | - | 48 W/m² | - |
| 1777637188 | 5.56° C | 95% | 1017.4 hPa | 0 mm | - | 58 W/m² | - |
| 1777636885 | 6.11° C | 95% | 1017.5 hPa | 0 mm | - | 57 W/m² | - |
| 1777636581 | 5.56° C | 96% | 1017.3 hPa | 0 mm | - | 34 W/m² | - |
| 1777636278 | 5.56° C | 95% | 1017.1 hPa | 0 mm | - | 27 W/m² | - |
| 1777635978 | 6.11° C | 96% | 1017 hPa | 0 mm | - | 29 W/m² | - |
| 1777635674 | 6.11° C | 96% | 1016.9 hPa | 0 mm | - | 26 W/m² | - |
| 1777635371 | 6.11° C | 96% | 1016.9 hPa | 0 mm | - | 21 W/m² | - |
| 1777635068 | 6.11° C | 96% | 1017 hPa | 0 mm | - | 19 W/m² | - |
| 1777634764 | 6.11° C | 96% | 1016.7 hPa | 0 mm | - | 18 W/m² | - |
| 1777634461 | 6.11° C | 96% | 1016.7 hPa | 0 mm | - | 16 W/m² | - |
| 1777634158 | 6.11° C | 96% | 1016.5 hPa | 0 mm | - | 13 W/m² | - |
| 1777633854 | 6.11° C | 97% | 1016.7 hPa | 0 mm | - | 10 W/m² | - |
| 1777633552 | 6.67° C | 98% | 1016.4 hPa | 0 mm | - | 8 W/m² | - |
* Rain latest hour (hover to see other rain measurements)
** Current wind speed in m/s (hover to see current wind gust speed)